Location: Kampung Segan
(3.1399°N, 113.1002°E)
Time: 15:29:08
(UTC+00:00)

Centaur D-1A AC-31 - Pass Details

Date: 05 August 2024
Orbit: 553 x 36361 km, 27.9° (Epoch: 07 September)

Event Time Altitude Azimuth Distance (km) Brightness Sun altitude
Exits shadow 20:48:20 16° 192° (SSW) 2,852 4.1 -24.1°
Maximum altitude 05:15:08 39° 62° (ENE) 27,275 9.9 73.1°
Drops below altitude 10° 06:48:05 10° 88° (E) 12,763 7.5 54.3°
Sets 06:55:34 0° 93° (E) 11,798 7.2 52.6°
